Chillicothe, MO

9:27 AM CDT on October 15, 2019 (GMT -0500)
Chillicothe

Weather History for KCDJ - August, 2019

Change the Weather History Date:

Tuesday, August 6, 2019

  Actual Average (WUND) Record (WUND)
Temperature  
Mean Temperature 78 °F -  
Max Temperature 88 °F - - (-1)
Min Temperature 68 °F - - (-1)
Cooling Degree Days 13    
Growing Degree Days 28 (Base 50)    
Moisture  
Dew Point 70 °F    
Average Humidity 76    
Maximum Humidity 94    
Minimum Humidity 49    
Precipitation  
Precipitation 0.00 in - - ()
Sea Level Pressure  
Sea Level Pressure 29.86 in    
Wind  
Wind Speed 3 mph (NNW)    
Max Wind Speed 8 mph    
Max Gust Speed -    
Averages and records for this station are not official NWS values.
T = Trace of Precipitation, MM = Missing Value Source: NWS Daily Summary

Daily Weather History Graph

Daily Weather History Graph

Search for Another Location

Airport or City:

Astronomy

Aug. 06, 2019 Rise Set
Actual Time 6:17 AM CDT 8:22 PM CDT
Civil Twilight 5:47 AM CDT 8:51 PM CDT
Nautical Twilight 5:11 AM CDT 9:28 PM CDT
Astronomical Twilight 4:31 AM CDT 10:07 PM CDT
Moon 12:42 PM CDT (8/6) No Moon Set
Length of Visible Light 15h 04m
Length of Day
14h 04m
Waxing Crescent, 39% of the Moon is Illuminated
Aug 6
Waxing Crescent
Aug 7
First Quarter
Aug 15
Full
Aug 23
Last Quarter
Aug 30
New

Hourly Weather History & Observations

Time (CDT) Temp. Heat Index Dew Point Humidity Pressure Visibility Wind Dir Wind Speed Gust Speed Precip Events Conditions
12:52 AM 75.9 °F - 73.0 °F 91% 29.86 in - Calm Calm - N/A   Unknown
2:52 AM 75.9 °F - 71.1 °F 85% 29.84 in - Variable 4.6 mph - N/A   Unknown
4:52 AM 75.9 °F - 72.0 °F 87% 29.85 in - Calm Calm - N/A   Unknown
5:52 AM 75.0 °F - 72.0 °F 90% 29.84 in - Calm Calm - N/A   Unknown
6:52 AM 75.0 °F - 73.0 °F 94% 29.85 in - Calm Calm - N/A   Unknown
7:52 AM 75.9 °F - 73.0 °F 91% 29.86 in - Variable 3.5 mph - N/A   Unknown
8:52 AM 79.0 °F - 73.0 °F 82% 29.87 in - NW 4.6 mph - N/A   Unknown
9:52 AM 81.0 °F 85.8 °F 73.0 °F 77% 29.88 in - NW 5.8 mph - N/A   Unknown
10:52 AM 84.0 °F 90.2 °F 73.0 °F 69% 29.88 in - Variable 4.6 mph - N/A   Unknown
11:52 AM 84.0 °F 89.0 °F 71.1 °F 65% 29.89 in - North 8.1 mph - N/A   Unknown
12:52 PM 84.9 °F 88.2 °F 68.0 °F 57% 29.88 in - Variable 6.9 mph - N/A   Unknown
1:52 PM 86.0 °F 89.4 °F 68.0 °F 55% 29.88 in - North 8.1 mph - N/A   Unknown
2:52 PM 86.0 °F 88.8 °F 66.9 °F 53% 29.88 in - NW 8.1 mph - N/A   Unknown
3:52 PM 87.1 °F 89.2 °F 66.0 °F 49% 29.86 in - Variable 5.8 mph - N/A   Unknown
4:52 PM 87.1 °F 89.2 °F 66.0 °F 49% 29.85 in - North - - N/A   Unknown
7:52 PM 79.0 °F - 66.9 °F 66% 29.84 in - Calm Calm - N/A   Unknown
8:52 PM 73.9 °F - 69.1 °F 85% 29.84 in - Calm Calm - N/A   Unknown
9:52 PM 71.1 °F - 68.0 °F 90% 29.88 in - Calm Calm - N/A   Unknown
10:52 PM 69.1 °F - 66.9 °F 93% 29.89 in - Calm Calm - N/A   Unknown
11:52 PM 68.0 °F - 66.0 °F 93% 29.88 in - Calm Calm - N/A   Unknown